Mountain Home, Arkansas, United States (72653)
Lat: 36.34N, Lon: 92.39W
Wx Zone: ARZ005
Local Info
Past Weather Observations for Wednesday, August 27, 2014

NOTE: This archive is for the closest National Weather Service station to Mountain Home. Information may differ from the station used for current weather conditions.

Click here for Long-term Archive

Time Weather Temperature Dewpoint Humidity Pressure Winds Precip Visibility
23:53
Clear
75°F / 24°C 68°F / 20°C 78% 30.06 in
(1018 mb)
Calm - 9SM
22:53
Clear
77°F / 25°C 68°F / 20°C 74% 30.06 in
(1018 mb)
SSE 3.5 mph
(SSE 6 kph)
- 9SM
21:53
Clear
79°F / 26°C 68°F / 20°C 70% 30.06 in
(1018 mb)
SE 3.5 mph
(SE 6 kph)
- 9SM
20:53
Clear
81°F / 27°C 68°F / 20°C 66% 30.06 in
(1018 mb)
SE 3.5 mph
(SE 6 kph)
- 9SM
19:53
Partly Cloudy
82°F / 28°C 68°F / 20°C 62% 30.04 in
(1017 mb)
SSE 4.6 mph
(SSE 7 kph)
- 9SM
18:53
Clear
84°F / 29°C 68°F / 20°C 58% 30.04 in
(1017 mb)
SE 5.8 mph
(SE 9 kph)
- 8SM
17:53
Clear
86°F / 30°C 70°F / 21°C 59% 30.01 in
(1016 mb)
SE 6.9 mph
(SE 11 kph)
- 8SM
16:53
Clear
86°F / 30°C 64°F / 18°C 49% 30.01 in
(1016 mb)
SSE 5.8 mph
(SSE 9 kph)
- 9SM
15:53
Mostly Cloudy
93°F / 34°C 66°F / 19°C 41% 30.01 in
(1016 mb)
ENE 6.9 mph
(ENE 11 kph)
- 8SM
14:53
Clear
97°F / 36°C 64°F / 18°C 34% 30.04 in
(1017 mb)
ESE 10.4 mph
(ESE 17 kph)
- 9SM
13:53
Clear
97°F / 36°C 64°F / 18°C 34% 30.04 in
(1017 mb)
SSE 10.4 mph
(SSE 17 kph)
- 9SM
12:53
Mostly Cloudy
97°F / 36°C 64°F / 18°C 34% 30.06 in
(1018 mb)
Variable 5.8 mph
(Variable 9 kph)
- 9SM
11:53
Mostly Cloudy
93°F / 34°C 70°F / 21°C 47% 30.09 in
(1019 mb)
S 6.9 mph
(S 11 kph)
- 8SM
10:53
Partly Cloudy
91°F / 33°C 70°F / 21°C 49% 30.09 in
(1019 mb)
Variable 4.6 mph
(Variable 7 kph)
- 8SM
09:53
Clear
88°F / 31°C 70°F / 21°C 55% 30.12 in
(1020 mb)
Calm - 8SM
08:53
Clear
86°F / 30°C 72°F / 22°C 62% 30.12 in
(1020 mb)
Variable 3.5 mph
(Variable 6 kph)
- 7SM
07:53
Clear
81°F / 27°C 72°F / 22°C 74% 30.12 in
(1020 mb)
Calm - 7SM
06:53
Clear
Hazy
75°F / 24°C 72°F / 22°C 89% 30.12 in
(1020 mb)
Calm - 6SM
05:53
Clear
Fog And Mist
72°F / 22°C 70°F / 21°C 94% 30.09 in
(1019 mb)
Calm - 4SM
04:53
Clear
72°F / 22°C 70°F / 21°C 94% 30.09 in
(1019 mb)
Calm - 7SM
03:53
Clear
72°F / 22°C 70°F / 21°C 94% 30.09 in
(1019 mb)
Calm - 7SM
02:53
Clear
72°F / 22°C 70°F / 21°C 94% 30.09 in
(1019 mb)
Calm - 8SM
01:53
Clear
73°F / 23°C 70°F / 21°C 89% 30.09 in
(1019 mb)
Calm - 8SM
00:53
Clear
73°F / 23°C 70°F / 21°C 89% 30.09 in
(1019 mb)
Calm - 8SM
Time Weather Temperature Dewpoint Humidity Pressure Winds Precip Visibility


Weather for websites

WeatherForYou.com, LLC is not responsible for any damages or problems caused by this service. Current weather conditions are obtained from the closest station including government and personal stations which may have varying degrees of accuracy. Weather forecasts are derived from the NOAA NDFD. Like all things, this site belongs to Jesus Christ... He just trusts me to maintain it. If you have any questions or comments email webmaster@weatherforyou.com

Copyright © 2014, WeatherForYou.com LLC. All rights reserved.